Tampa, FL

2:24 PM EDT on July 22, 2017 (GMT -0400)
Tampa International

Weather History for KTPA - March, 2014

Change the Weather History Date:

Saturday, March 22, 2014

  Actual Average Record
Temperature  
Mean Temperature 72 °F 68 °F  
Max Temperature 79 °F 77 °F 88 °F (1929)
Min Temperature 65 °F 59 °F 40 °F (1906)
Degree Days  
Heating Degree Days 0 1  
Month to date heating degree days 30 48  
Since 1 July heating degree days 426 519  
Cooling Degree Days 7 4  
Month to date cooling degree days 56 82  
Year to date cooling degree days 160 195  
Growing Degree Days 22 (Base 50)    
Moisture  
Dew Point 62 °F    
Average Humidity 76    
Maximum Humidity 93    
Minimum Humidity 58    
Precipitation  
Precipitation 0.01 in 0.10 in 1.66 in (1974)
Month to date precipitation 2.55 2.16  
Year to date precipitation 7.50 7.20  
Sea Level Pressure  
Sea Level Pressure 30.05 in    
Wind  
Wind Speed 6 mph (SW)    
Max Wind Speed 15 mph    
Max Gust Speed 17 mph    
Visibility 10 miles    
Events Rain    
T = Trace of Precipitation, MM = Missing Value Source: NWS Daily Summary

Daily Weather History Graph

Daily Weather History Graph

Search for Another Location

Airport or City:

Trip Planner

Search our weather history database for the weather conditions in past years. The results will help you decide how hot, cold, wet, or windy it might be!

Date:

Astronomy

Mar. 22, 2014 Rise Set
Actual Time 7:31 AM EDT 7:42 PM EDT
Civil Twilight 7:08 AM EDT 8:05 PM EDT
Nautical Twilight 6:41 AM EDT 8:33 PM EDT
Astronomical Twilight 6:13 AM EDT 9:00 PM EDT
Moon 12:37 AM EDT 11:38 AM EDT
Length of Visible Light 12h 57m
Length of Day
12h 10m
Waning Gibbous, 65% of the Moon is Illuminated
Mar 22
Waning Gibbous
Mar 23
Last Quarter
Mar 30
New
Apr 7
First Quarter
Apr 15
Full

Hourly Weather History & Observations

Time (EDT) Temp. Dew Point Humidity Pressure Visibility Wind Dir Wind Speed Gust Speed Precip Events Conditions
12:53 AM 71.1 °F 60.1 °F 68% 30.06 in 10.0 mi ESE 5.8 mph - N/A   Partly Cloudy
1:53 AM 70.0 °F 60.1 °F 71% 30.04 in 10.0 mi ESE 5.8 mph - N/A   Clear
2:53 AM 69.1 °F 61.0 °F 75% 30.04 in 10.0 mi ESE 4.6 mph - N/A   Scattered Clouds
3:53 AM 68.0 °F 62.1 °F 81% 30.02 in 10.0 mi SE 5.8 mph - N/A   Mostly Cloudy
4:53 AM 68.0 °F 63.0 °F 84% 30.02 in 10.0 mi ESE 4.6 mph - N/A   Mostly Cloudy
5:53 AM 66.9 °F 63.0 °F 87% 30.03 in 10.0 mi Calm Calm - N/A   Mostly Cloudy
6:53 AM 66.0 °F 63.0 °F 90% 30.04 in 9.0 mi Calm Calm - N/A   Scattered Clouds
7:53 AM 66.0 °F 64.0 °F 93% 30.05 in 7.0 mi SE 3.5 mph - N/A   Mostly Cloudy
8:53 AM 68.0 °F 64.9 °F 90% 30.08 in 10.0 mi South 6.9 mph - N/A   Mostly Cloudy
9:53 AM 69.1 °F 64.9 °F 87% 30.09 in 10.0 mi SSW 8.1 mph - N/A   Mostly Cloudy
10:53 AM 71.1 °F 66.0 °F 84% 30.09 in 8.0 mi SSW 4.6 mph - N/A   Partly Cloudy
11:53 AM 73.9 °F 64.9 °F 73% 30.09 in 10.0 mi SW 6.9 mph - N/A   Scattered Clouds
12:53 PM 75.9 °F 64.9 °F 69% 30.06 in 10.0 mi WSW 8.1 mph - N/A   Partly Cloudy
1:53 PM 75.9 °F 64.9 °F 69% 30.04 in 10.0 mi WSW 11.5 mph - N/A   Mostly Cloudy
2:53 PM 78.1 °F 63.0 °F 60% 30.03 in 10.0 mi WSW 11.5 mph - N/A   Mostly Cloudy
3:53 PM 75.0 °F 62.1 °F 64% 30.01 in 10.0 mi West 12.7 mph - N/A   Mostly Cloudy
4:53 PM 75.0 °F 60.1 °F 60% 30.02 in 10.0 mi WSW 10.4 mph - N/A   Mostly Cloudy
5:53 PM 73.9 °F 59.0 °F 59% 30.04 in 10.0 mi West 9.2 mph - N/A   Mostly Cloudy
6:53 PM 72.0 °F 59.0 °F 64% 30.04 in 10.0 mi West 6.9 mph - N/A   Mostly Cloudy
7:53 PM 71.1 °F 59.0 °F 66% 30.04 in 10.0 mi West 8.1 mph - N/A   Mostly Cloudy
8:53 PM 70.0 °F 60.1 °F 71% 30.05 in 10.0 mi WNW 4.6 mph - N/A   Scattered Clouds
9:53 PM 69.1 °F 61.0 °F 75% 30.07 in 10.0 mi West 3.5 mph - N/A   Mostly Cloudy
10:53 PM 69.1 °F 62.1 °F 78% 30.08 in 10.0 mi West 6.9 mph - 0.00 in Rain Light Rain
11:53 PM 66.9 °F 62.1 °F 84% 30.07 in 10.0 mi NW 4.6 mph - 0.00 in   Mostly Cloudy